Madison, MN

1:28 PM CDT on August 26, 2016 (GMT -0500)
Madison-Lac Qui Parle County

Weather History for KDXX - August, 2014

Change the Weather History Date:

Tuesday, August 19, 2014

  Actual Average (KAQP) Record (KAQP)
Temperature  
Mean Temperature 73 °F -  
Max Temperature 84 °F 77 °F 96 °F (1998)
Min Temperature 62 °F 55 °F 37 °F (2004)
Cooling Degree Days 8    
Growing Degree Days 23 (Base 50)    
Moisture  
Dew Point 65 °F    
Average Humidity 76    
Maximum Humidity 94    
Minimum Humidity 51    
Precipitation  
Precipitation 0.00 in - - ()
Sea Level Pressure  
Sea Level Pressure 29.77 in    
Wind  
Wind Speed 5 mph (NW)    
Max Wind Speed 12 mph    
Max Gust Speed -    
Visibility 10 miles    
Events      
Averages and records for this station are not official NWS values.
T = Trace of Precipitation, MM = Missing Value Source: NWS Daily Summary

Daily Weather History Graph

Daily Weather History Graph

Search for Another Location

Airport or City:

Trip Planner

Search our weather history database for the weather conditions in past years. The results will help you decide how hot, cold, wet, or windy it might be!

Date:

Astronomy

Aug. 19, 2014 Rise Set
Actual Time 6:31 AM CDT 8:24 PM CDT
Civil Twilight 5:59 AM CDT 8:55 PM CDT
Nautical Twilight 5:21 AM CDT 9:34 PM CDT
Astronomical Twilight 4:38 AM CDT 10:16 PM CDT
Moon 1:19 AM CDT (8/19) 4:26 PM CDT (8/19)
Length of Visible Light 14h 56m
Length of Day
13h 53m
Waning Crescent, 29% of the Moon is Illuminated
Aug 19
Waning Crescent
Aug 25
New
Sep 2
First Quarter
Sep 8
Full
Sep 15
Last Quarter

Hourly Weather History & Observations

Time (CDT) Temp. Heat Index Dew Point Humidity Pressure Visibility Wind Dir Wind Speed Gust Speed Precip Events Conditions
12:13 AM 66.2 °F - 62.6 °F 88% 29.75 in 10.0 mi WNW 5.8 mph - N/A   Clear
12:34 AM 66.2 °F - 64.4 °F 94% 29.75 in 10.0 mi WNW 6.9 mph - N/A   Clear
12:53 AM 66.2 °F - 64.4 °F 94% 29.75 in 10.0 mi WNW 4.6 mph - N/A   Clear
1:14 AM 66.2 °F - 64.4 °F 94% 29.74 in 10.0 mi WNW 5.8 mph - N/A   Clear
1:33 AM 66.2 °F - 64.4 °F 94% 29.74 in 10.0 mi WNW 6.9 mph - N/A   Clear
1:54 AM 68.0 °F - 64.4 °F 88% 29.74 in 10.0 mi WNW 8.1 mph - N/A   Clear
2:14 AM 68.0 °F - 64.4 °F 88% 29.73 in 10.0 mi WNW 5.8 mph - N/A   Clear
2:33 AM 66.2 °F - 64.4 °F 94% 29.73 in 10.0 mi WNW 4.6 mph - N/A   Clear
2:54 AM 66.2 °F - 62.6 °F 88% 29.73 in 10.0 mi WSW 3.5 mph - N/A   Clear
3:14 AM 66.2 °F - 64.4 °F 94% 29.74 in 10.0 mi WSW 3.5 mph - N/A   Clear
3:33 AM 64.4 °F - 62.6 °F 94% 29.75 in 10.0 mi West 4.6 mph - N/A   Clear
4:14 AM 64.4 °F - 62.6 °F 94% 29.75 in 7.0 mi West 3.5 mph - N/A   Clear
4:33 AM 64.4 °F - 62.6 °F 94% 29.75 in 7.0 mi Calm Calm - N/A   Clear
4:54 AM 64.4 °F - 62.6 °F 94% 29.76 in 10.0 mi West 5.8 mph - N/A   Clear
5:14 AM 64.4 °F - 62.6 °F 94% 29.76 in 10.0 mi West 5.8 mph - N/A   Clear
5:33 AM 64.4 °F - 62.6 °F 94% 29.76 in 10.0 mi West 6.9 mph - N/A   Clear
5:54 AM 64.4 °F - 62.6 °F 94% 29.76 in 10.0 mi West 4.6 mph - N/A   Clear
6:14 AM 64.4 °F - 62.6 °F 94% 29.77 in 10.0 mi West 4.6 mph - N/A   Clear
6:33 AM 62.6 °F - 60.8 °F 94% 29.77 in 7.0 mi West 4.6 mph - N/A   Clear
6:54 AM 64.4 °F - 62.6 °F 94% 29.77 in 10.0 mi West 4.6 mph - N/A   Clear
7:14 AM 64.4 °F - 62.6 °F 94% 29.77 in 10.0 mi West 4.6 mph - N/A   Clear
7:33 AM 66.2 °F - 62.6 °F 88% 29.77 in 7.0 mi WNW 3.5 mph - N/A   Clear
7:53 AM 66.2 °F - 64.4 °F 94% 29.77 in 7.0 mi Calm Calm - N/A   Clear
8:14 AM 68.0 °F - 64.4 °F 88% 29.77 in 10.0 mi Calm Calm - N/A   Scattered Clouds
8:33 AM 69.8 °F - 66.2 °F 88% 29.77 in 10.0 mi NW 4.6 mph - N/A   Clear
8:53 AM 71.6 °F - 64.4 °F 78% 29.77 in 10.0 mi NW 4.6 mph - N/A   Clear
9:14 AM 73.4 °F - 66.2 °F 78% 29.77 in 10.0 mi NW 8.1 mph - N/A   Clear
9:33 AM 75.2 °F - 66.2 °F 73% 29.77 in 10.0 mi NW 5.8 mph - N/A   Clear
9:54 AM 75.2 °F - 66.2 °F 73% 29.77 in 10.0 mi NW 6.9 mph - N/A   Clear
10:14 AM 77.0 °F - 66.2 °F 69% 29.78 in 10.0 mi NW 6.9 mph - N/A   Clear
10:33 AM 77.0 °F - 66.2 °F 69% 29.78 in 10.0 mi NW 6.9 mph - N/A   Clear
10:54 AM 78.8 °F - 66.2 °F 65% 29.78 in 10.0 mi NNW 9.2 mph - N/A   Clear
11:14 AM 78.8 °F - 66.2 °F 65% 29.78 in 10.0 mi NNW 9.2 mph - N/A   Clear
11:33 AM 80.6 °F 82.7 °F 66.2 °F 61% 29.78 in 10.0 mi NW 8.1 mph - N/A   Clear
11:54 AM 80.6 °F 82.7 °F 66.2 °F 61% 29.79 in 10.0 mi NNW 8.1 mph - N/A   Clear
12:14 PM 80.6 °F 82.3 °F 64.4 °F 58% 29.78 in 10.0 mi NNW 11.5 mph - N/A   Clear
12:33 PM 82.4 °F 83.9 °F 64.4 °F 54% 29.78 in 10.0 mi NW 8.1 mph - N/A   Clear
12:54 PM 82.4 °F 84.6 °F 66.2 °F 58% 29.78 in 10.0 mi NNW 8.1 mph - N/A   Clear
1:14 PM 82.4 °F 83.9 °F 64.4 °F 54% 29.78 in 10.0 mi NW 5.8 mph - N/A   Clear
1:33 PM 82.4 °F 83.9 °F 64.4 °F 54% 29.78 in 10.0 mi NW 5.8 mph - N/A   Clear
1:54 PM 82.4 °F 83.9 °F 64.4 °F 54% 29.78 in 10.0 mi NNW 8.1 mph - N/A   Clear
2:13 PM 82.4 °F 83.9 °F 64.4 °F 54% 29.77 in 10.0 mi NNW 10.4 mph - N/A   Clear
2:34 PM 84.2 °F 85.6 °F 64.4 °F 51% 29.77 in 10.0 mi North 11.5 mph - N/A   Clear
2:53 PM 84.2 °F 85.6 °F 64.4 °F 51% 29.78 in 10.0 mi North 10.4 mph - N/A   Clear
3:13 PM 84.2 °F 85.6 °F 64.4 °F 51% 29.77 in 10.0 mi NNW 10.4 mph - N/A   Clear
3:34 PM 84.2 °F 85.6 °F 64.4 °F 51% 29.77 in 10.0 mi NNW 10.4 mph - N/A   Clear
3:53 PM 84.2 °F 85.6 °F 64.4 °F 51% 29.77 in 10.0 mi NW 6.9 mph - N/A   Clear
4:13 PM 84.2 °F 85.6 °F 64.4 °F 51% 29.77 in 10.0 mi NNW 6.9 mph - N/A   Clear
4:34 PM 84.2 °F 85.6 °F 64.4 °F 51% 29.76 in 10.0 mi NNW 6.9 mph - N/A   Clear
4:53 PM 84.2 °F 85.6 °F 64.4 °F 51% 29.77 in 10.0 mi North 4.6 mph - N/A   Clear
5:34 PM 84.2 °F 85.6 °F 64.4 °F 51% 29.77 in 10.0 mi North 4.6 mph - N/A   Clear
5:53 PM 84.2 °F 85.6 °F 64.4 °F 51% 29.76 in 10.0 mi NNE 5.8 mph - N/A   Clear
6:13 PM 82.4 °F 83.9 °F 64.4 °F 54% 29.77 in 10.0 mi NNE 3.5 mph - N/A   Clear
6:34 PM 82.4 °F 83.9 °F 64.4 °F 54% 29.76 in 10.0 mi NE 3.5 mph - N/A   Clear
6:53 PM 82.4 °F 85.4 °F 68.0 °F 62% 29.76 in 10.0 mi ENE 3.5 mph - N/A   Clear
7:13 PM 80.6 °F 83.9 °F 69.8 °F 70% 29.76 in 10.0 mi Calm Calm - N/A   Clear
7:34 PM 78.8 °F - 69.8 °F 74% 29.76 in 10.0 mi Calm Calm - N/A   Clear
7:54 PM 78.8 °F - 69.8 °F 74% 29.76 in 10.0 mi Calm Calm - N/A   Clear
8:13 PM 77.0 °F - 69.8 °F 78% 29.77 in 10.0 mi Calm Calm - N/A   Clear
8:34 PM 77.0 °F - 69.8 °F 78% 29.77 in 10.0 mi Calm Calm - N/A   Clear
8:53 PM 73.4 °F - 69.8 °F 88% 29.78 in 10.0 mi Calm Calm - N/A   Clear
9:53 PM 73.4 °F - 68.0 °F 83% 29.80 in 10.0 mi Calm Calm - N/A   Clear
10:14 PM 71.6 °F - 69.8 °F 94% 29.80 in 3.0 mi Calm Calm - N/A   Clear
10:33 PM 71.6 °F - 69.8 °F 94% 29.80 in 7.0 mi Calm Calm - N/A   Clear
10:54 PM 69.8 °F - 68.0 °F 94% 29.80 in 10.0 mi Calm Calm - N/A   Clear
11:14 PM 69.8 °F - 68.0 °F 94% 29.80 in 10.0 mi South 3.5 mph - N/A   Clear
11:33 PM 69.8 °F - 66.2 °F 88% 29.80 in - South 3.5 mph - N/A   Unknown
11:54 PM 68.0 °F - 66.2 °F 94% 29.80 in - Calm Calm - N/A   Unknown